GFSNW_500_temp_072.txt.gz
Temp
-22 -22 -22 -22 -22 -22 -22 -22 -21 -21 -22 -22 -20 -19 -20 -21 -20 -21 -21 -19 -19 -20 -19 -17 -16 -15 -15 -15 -16 -15 -17 -17 -16 -16 -14 -14 -14 -14 -15 -14 -15 -15 -15 -15
-22 -21 -21 -21 -22 -22 -22 -22 -21 -21 -22 -20 -19 -20 -20 -23 -23 -21 -22 -21 -20 -20 -20 -18 -17 -16 -16 -15 -15 -16 -17 -17 -17 -16 -16 -15 -14 -14 -15 -15 -15 -14 -15 -14
-22 -21 -21 -21 -21 -22 -22 -22 -22 -21 -20 -20 -21 -21 -21 -22 -23 -22 -23 -22 -21 -20 -18 -18 -18 -17 -17 -16 -16 -16 -17 -18 -16 -16 -16 -15 -15 -15 -16 -16 -14 -14 -14 -15
-21 -21 -21 -21 -21 -22 -22 -22 -21 -21 -20 -20 -21 -21 -21 -21 -22 -22 -22 -23 -21 -18 -19 -20 -18 -18 -18 -16 -16 -17 -18 -17 -18 -18 -17 -17 -16 -15 -15 -15 -15 -15 -15 -16
-20 -20 -20 -21 -21 -22 -22 -21 -21 -21 -21 -21 -21 -21 -20 -21 -21 -22 -21 -21 -22 -20 -20 -20 -19 -20 -18 -17 -17 -17 -18 -18 -18 -18 -17 -17 -16 -16 -16 -15 -15 -15 -16 -16
-20 -20 -20 -20 -21 -22 -22 -21 -21 -21 -21 -21 -21 -19 -21 -21 -22 -22 -22 -22 -21 -21 -20 -20 -19 -18 -18 -17 -17 -17 -17 -18 -17 -17 -17 -18 -16 -16 -16 -17 -17 -17 -16 -16
-20 -21 -21 -21 -21 -22 -22 -21 -21 -22 -20 -20 -20 -21 -22 -22 -22 -22 -23 -22 -22 -20 -19 -19 -19 -18 -18 -17 -17 -17 -17 -19 -18 -18 -17 -16 -16 -16 -16 -16 -16 -16 -16 -16
-21 -21 -21 -22 -22 -22 -23 -22 -22 -22 -22 -21 -21 -21 -22 -23 -23 -22 -22 -22 -21 -21 -23 -21 -19 -18 -19 -18 -18 -17 -18 -19 -18 -18 -17 -16 -17 -16 -16 -15 -15 -16 -16 -15
-24 -24 -24 -24 -24 -23 -23 -23 -23 -23 -23 -22 -22 -22 -22 -22 -22 -23 -22 -22 -23 -23 -23 -22 -19 -19 -19 -19 -18 -17 -17 -17 -18 -16 -18 -16 -16 -16 -16 -16 -15 -16 -16 -16
-24 -25 -24 -25 -25 -24 -24 -24 -24 -24 -23 -23 -23 -23 -23 -23 -23 -23 -23 -23 -24 -23 -22 -22 -20 -20 -20 -19 -18 -17 -17 -17 -17 -17 -17 -17 -17 -17 -17 -17 -16 -17 -17 -17
-25 -25 -25 -25 -26 -25 -25 -25 -24 -24 -24 -23 -24 -24 -23 -23 -23 -22 -22 -24 -24 -22 -22 -22 -21 -20 -19 -19 -18 -18 -17 -18 -17 -17 -17 -16 -17 -17 -18 -17 -18 -18 -18 -17
-26 -26 -26 -26 -26 -26 -25 -25 -25 -24 -24 -24 -24 -24 -24 -23 -23 -23 -23 -23 -23 -22 -22 -21 -20 -20 -20 -19 -18 -18 -16 -17 -17 -18 -17 -17 -17 -17 -17 -17 -17 -18 -17 -18
-26 -26 -26 -27 -27 -26 -25 -25 -25 -25 -25 -24 -24 -24 -24 -23 -23 -23 -22 -23 -23 -22 -21 -21 -20 -20 -20 -19 -18 -17 -17 -17 -17 -17 -17 -17 -17 -17 -17 -17 -17 -17 -17 -17
-27 -26 -26 -27 -27 -26 -26 -25 -25 -25 -25 -25 -24 -25 -24 -24 -23 -23 -22 -23 -23 -23 -22 -20 -20 -20 -20 -19 -19 -18 -18 -18 -17 -17 -17 -17 -17 -17 -17 -17 -17 -17 -18 -18
-27 -26 -27 -27 -27 -26 -26 -25 -25 -25 -25 -25 -25 -25 -24 -24 -23 -23 -22 -22 -23 -22 -22 -21 -20 -20 -21 -20 -19 -18 -18 -18 -17 -17 -18 -17 -17 -17 -17 -17 -17 -17 -17 -18
-26 -26 -27 -27 -27 -27 -26 -26 -25 -25 -25 -25 -25 -24 -24 -24 -23 -23 -21 -22 -23 -22 -21 -21 -20 -21 -21 -20 -19 -19 -19 -18 -18 -18 -18 -17 -17 -17 -17 -17 -17 -17 -17 -18
-26 -26 -26 -26 -26 -26 -25 -25 -25 -25 -25 -25 -24 -24 -24 -23 -22 -21 -23 -23 -22 -22 -22 -21 -20 -20 -20 -20 -18 -19 -19 -19 -19 -18 -17 -18 -17 -17 -18 -17 -17 -17 -17 -17
-26 -26 -26 -25 -25 -25 -25 -25 -25 -25 -25 -25 -24 -23 -23 -23 -23 -23 -23 -22 -23 -23 -21 -21 -20 -21 -20 -19 -19 -19 -19 -19 -19 -18 -19 -19 -18 -18 -18 -19 -19 -18 -18 -18
-25 -25 -25 -25 -25 -26 -25 -25 -25 -25 -24 -24 -24 -24 -24 -23 -23 -23 -24 -24 -23 -22 -21 -21 -21 -20 -19 -19 -19 -20 -19 -19 -18 -18 -19 -19 -18 -18 -18 -18 -18 -18 -19 -18
-25 -25 -26 -26 -26 -26 -25 -25 -24 -24 -24 -24 -24 -24 -24 -25 -24 -23 -24 -23 -23 -21 -21 -21 -20 -20 -20 -20 -20 -19 -19 -19 -18 -18 -18 -18 -17 -17 -18 -18 -19 -18 -18 -18
-25 -24 -24 -25 -24 -24 -24 -24 -24 -24 -24 -24 -24 -24 -24 -24 -24 -23 -23 -23 -22 -22 -22 -21 -20 -19 -20 -20 -20 -20 -19 -19 -18 -18 -18 -18 -18 -18 -18 -18 -18 -18 -18 -18
-25 -24 -24 -24 -24 -24 -24 -24 -24 -24 -25 -24 -24 -23 -24 -23 -23 -22 -22 -22 -22 -22 -21 -21 -19 -19 -19 -20 -19 -19 -19 -18 -19 -18 -18 -18 -18 -18 -19 -18 -18 -18 -18 -18
-24 -24 -24 -24 -24 -23 -23 -24 -24 -24 -24 -24 -24 -24 -23 -22 -22 -22 -22 -22 -21 -21 -21 -21 -19 -19 -19 -19 -19 -19 -18 -18 -18 -18 -18 -18 -18 -18 -18 -18 -18 -19 -18 -18
-25 -25 -24 -24 -24 -23 -23 -23 -23 -23 -23 -23 -23 -23 -23 -22 -22 -22 -21 -22 -21 -21 -21 -20 -19 -19 -19 -19 -19 -18 -18 -18 -18 -18 -18 -18 -18 -18 -18 -19 -19 -19 -18 -18
-24 -24 -24 -24 -24 -23 -23 -23 -23 -23 -23 -23 -23 -23 -22 -23 -22 -22 -21 -21 -21 -21 -21 -21 -20 -19 -19 -19 -18 -19 -19 -18 -18 -18 -18 -18 -19 -19 -19 -19 -19 -19 -19 -19
-25 -25 -24 -24 -24 -24 -24 -25 -23 -23 -23 -23 -23 -22 -21 -22 -21 -21 -21 -21 -21 -21 -21 -21 -20 -20 -19 -19 -19 -18 -18 -18 -19 -19 -19 -19 -19 -19 -19 -19 -19 -19 -19 -19
-26 -26 -26 -26 -25 -26 -26 -26 -24 -23 -23 -23 -23 -22 -22 -21 -21 -21 -21 -22 -21 -21 -21 -20 -20 -19 -19 -19 -19 -19 -19 -19 -19 -19 -19 -19 -19 -19 -19 -20 -20 -20 -20 -20

GFSNW_500_temp_078.txt.gz
Temp
-24 -23 -23 -23 -23 -23 -23 -23 -22 -22 -24 -23 -22 -20 -20 -20 -21 -22 -21 -19 -21 -21 -20 -20 -19 -17 -15 -16 -15 -16 -15 -16 -15 -14 -15 -15 -14 -14 -15 -14 -13 -13 -13 -13
-24 -24 -24 -23 -23 -23 -24 -23 -23 -23 -24 -23 -22 -22 -21 -20 -21 -21 -21 -21 -22 -21 -20 -20 -19 -18 -17 -18 -16 -14 -16 -17 -15 -15 -15 -14 -14 -14 -14 -16 -15 -15 -14 -13
-25 -24 -24 -24 -24 -24 -25 -24 -24 -23 -23 -22 -22 -21 -21 -21 -21 -22 -21 -21 -22 -21 -20 -20 -19 -18 -17 -19 -18 -16 -17 -17 -15 -13 -13 -15 -15 -15 -15 -16 -15 -15 -15 -14
-25 -25 -25 -25 -25 -25 -25 -24 -23 -23 -21 -21 -22 -22 -21 -21 -21 -21 -22 -21 -21 -22 -21 -20 -19 -19 -18 -17 -18 -18 -18 -16 -16 -15 -16 -16 -15 -15 -16 -16 -16 -15 -15 -15
-25 -25 -25 -25 -25 -25 -25 -23 -23 -22 -22 -22 -22 -21 -20 -21 -22 -22 -22 -21 -22 -22 -21 -22 -20 -20 -18 -18 -17 -18 -18 -17 -17 -16 -16 -16 -16 -16 -16 -16 -16 -17 -15 -15
-24 -24 -24 -24 -24 -24 -23 -23 -23 -22 -22 -22 -21 -21 -21 -21 -22 -21 -22 -22 -22 -22 -22 -22 -21 -20 -20 -19 -17 -18 -18 -18 -18 -16 -16 -16 -16 -15 -15 -16 -16 -17 -15 -15
-23 -23 -23 -23 -23 -23 -23 -23 -23 -22 -21 -22 -21 -21 -21 -21 -21 -21 -22 -22 -22 -23 -22 -22 -21 -20 -20 -19 -19 -18 -18 -18 -17 -17 -17 -16 -14 -16 -16 -16 -16 -16 -16 -16
-23 -23 -23 -23 -23 -23 -23 -22 -22 -22 -21 -21 -21 -21 -21 -21 -21 -21 -22 -21 -23 -23 -22 -21 -21 -21 -21 -20 -20 -19 -19 -19 -18 -18 -17 -15 -15 -16 -16 -15 -16 -16 -17 -17
-22 -22 -22 -22 -22 -22 -23 -22 -22 -22 -21 -21 -21 -20 -21 -21 -21 -22 -21 -22 -23 -22 -22 -21 -20 -21 -20 -19 -20 -19 -18 -18 -18 -18 -18 -16 -15 -17 -16 -16 -16 -17 -16 -16
-22 -22 -22 -22 -22 -22 -22 -22 -22 -22 -21 -20 -21 -20 -20 -21 -21 -22 -22 -22 -22 -22 -22 -22 -21 -21 -20 -20 -18 -20 -19 -18 -17 -17 -17 -16 -16 -17 -17 -17 -16 -17 -17 -17
-21 -21 -21 -21 -21 -22 -22 -22 -22 -22 -21 -21 -21 -21 -20 -21 -21 -21 -23 -22 -22 -22 -21 -21 -21 -21 -20 -19 -19 -20 -19 -18 -18 -18 -18 -17 -17 -17 -17 -16 -17 -17 -17 -17
-24 -23 -22 -22 -22 -22 -22 -23 -23 -22 -22 -21 -22 -21 -21 -21 -22 -22 -22 -22 -23 -22 -22 -21 -21 -21 -21 -20 -20 -20 -19 -19 -19 -19 -18 -18 -18 -17 -17 -17 -17 -17 -17 -17
-25 -25 -25 -25 -24 -24 -23 -23 -24 -24 -23 -23 -22 -22 -22 -22 -22 -22 -22 -22 -23 -22 -22 -22 -21 -21 -21 -20 -20 -21 -20 -19 -19 -19 -19 -19 -18 -18 -17 -18 -17 -17 -17 -17
-26 -25 -25 -25 -25 -25 -25 -25 -24 -25 -25 -24 -23 -23 -22 -22 -22 -23 -23 -23 -23 -23 -22 -22 -21 -21 -20 -20 -20 -21 -21 -21 -20 -19 -19 -19 -18 -18 -18 -18 -17 -17 -17 -17
-27 -26 -26 -25 -25 -26 -25 -25 -25 -26 -26 -26 -25 -25 -24 -23 -23 -23 -23 -24 -23 -23 -23 -22 -22 -21 -21 -20 -20 -19 -21 -20 -20 -20 -21 -20 -19 -18 -18 -17 -17 -17 -17 -17
-27 -26 -27 -26 -26 -26 -25 -26 -27 -26 -26 -26 -25 -25 -25 -24 -24 -24 -23 -24 -23 -23 -23 -23 -22 -22 -22 -23 -22 -19 -20 -21 -21 -20 -20 -20 -19 -18 -18 -17 -18 -17 -17 -17
-27 -27 -27 -27 -27 -27 -26 -25 -25 -25 -26 -26 -25 -25 -25 -25 -25 -25 -24 -24 -24 -23 -23 -23 -23 -23 -23 -23 -22 -21 -21 -21 -20 -20 -19 -19 -19 -19 -18 -17 -17 -17 -17 -17
-27 -27 -27 -27 -27 -27 -27 -26 -26 -27 -26 -26 -26 -25 -25 -25 -25 -25 -25 -24 -23 -23 -23 -22 -22 -22 -23 -22 -22 -21 -21 -20 -21 -19 -19 -20 -20 -19 -18 -18 -18 -17 -17 -17
-27 -27 -27 -27 -27 -27 -27 -27 -27 -26 -26 -25 -25 -25 -25 -25 -25 -25 -25 -24 -23 -23 -23 -22 -23 -22 -22 -21 -21 -22 -21 -21 -21 -20 -20 -20 -20 -20 -19 -19 -19 -18 -17 -17
-27 -27 -27 -27 -27 -27 -27 -27 -26 -26 -26 -25 -25 -25 -25 -25 -24 -24 -25 -24 -24 -23 -23 -23 -22 -21 -21 -21 -22 -21 -21 -21 -21 -20 -19 -20 -20 -21 -21 -21 -20 -19 -18 -18
-27 -27 -27 -27 -27 -27 -27 -26 -26 -26 -26 -25 -25 -25 -25 -25 -25 -25 -25 -24 -24 -23 -23 -23 -22 -21 -21 -20 -21 -22 -21 -21 -21 -20 -20 -20 -20 -21 -21 -20 -19 -19 -19 -19
-26 -26 -26 -26 -26 -26 -26 -26 -25 -25 -25 -25 -25 -25 -25 -25 -25 -25 -24 -24 -24 -23 -23 -22 -21 -22 -22 -22 -22 -21 -21 -21 -20 -20 -20 -20 -20 -20 -20 -20 -19 -19 -19 -19
-27 -27 -27 -27 -26 -26 -25 -25 -25 -25 -25 -25 -25 -25 -25 -25 -25 -25 -24 -24 -23 -24 -23 -22 -21 -21 -22 -21 -21 -21 -20 -21 -21 -21 -21 -20 -20 -20 -20 -20 -20 -20 -20 -20
-26 -26 -25 -25 -25 -25 -25 -25 -25 -25 -25 -25 -25 -25 -24 -24 -25 -24 -24 -23 -23 -24 -23 -23 -22 -22 -22 -22 -21 -21 -20 -21 -21 -20 -20 -21 -20 -20 -20 -20 -19 -19 -19 -19
-26 -25 -25 -25 -25 -25 -25 -25 -25 -25 -25 -24 -24 -24 -24 -24 -25 -24 -23 -23 -22 -22 -22 -21 -21 -22 -22 -21 -21 -21 -21 -21 -21 -20 -20 -20 -20 -20 -20 -20 -19 -19 -19 -20
-25 -25 -25 -25 -24 -24 -24 -25 -25 -25 -25 -25 -24 -24 -24 -24 -24 -23 -23 -22 -22 -22 -22 -21 -22 -22 -22 -21 -21 -21 -21 -21 -21 -21 -21 -20 -20 -20 -20 -20 -20 -19 -20 -20
-25 -25 -24 -24 -24 -24 -24 -24 -25 -24 -24 -24 -24 -23 -23 -23 -23 -23 -22 -22 -22 -22 -21 -21 -22 -22 -21 -22 -21 -21 -21 -21 -21 -20 -20 -20 -20 -21 -20 -20 -20 -20 -20 -20

GFSNW_500_temp_081.txt.gz
Temp
-26 -26 -25 -25 -24 -24 -24 -23 -22 -21 -22 -21 -19 -18 -18 -18 -19 -19 -18 -19 -20 -20 -20 -18 -16 -15 -18 -16 -15 -16 -16 -14 -13 -14 -15 -15 -15 -15 -15 -15 -14 -13 -12 -12
-26 -26 -26 -25 -25 -25 -24 -24 -23 -22 -23 -21 -19 -19 -20 -20 -20 -20 -21 -21 -22 -22 -20 -19 -17 -17 -19 -19 -18 -17 -16 -15 -14 -14 -15 -15 -14 -15 -15 -16 -15 -14 -13 -12
-26 -26 -26 -26 -25 -25 -25 -24 -24 -23 -23 -22 -21 -21 -21 -21 -21 -22 -22 -23 -23 -23 -21 -20 -19 -20 -21 -20 -19 -18 -18 -16 -15 -14 -14 -16 -16 -15 -16 -15 -15 -14 -12 -12
-26 -26 -26 -26 -26 -26 -26 -25 -24 -23 -23 -22 -23 -23 -22 -22 -22 -23 -23 -22 -22 -23 -21 -20 -19 -20 -21 -20 -19 -19 -19 -18 -17 -15 -15 -17 -17 -17 -16 -15 -14 -14 -13 -13
-26 -26 -26 -26 -26 -26 -27 -25 -24 -23 -23 -23 -23 -24 -23 -23 -23 -23 -23 -22 -23 -23 -21 -20 -20 -21 -21 -20 -19 -19 -18 -18 -18 -16 -16 -16 -17 -17 -16 -15 -14 -15 -15 -14
-26 -26 -26 -26 -26 -27 -27 -25 -24 -24 -23 -23 -23 -23 -23 -23 -23 -22 -22 -22 -22 -21 -22 -21 -20 -20 -20 -21 -19 -19 -18 -18 -18 -16 -17 -17 -18 -15 -15 -16 -15 -15 -15 -14
-26 -26 -26 -26 -26 -26 -26 -25 -24 -24 -23 -23 -22 -23 -23 -23 -22 -23 -22 -22 -22 -23 -22 -21 -20 -20 -20 -20 -20 -20 -18 -19 -18 -18 -18 -18 -16 -15 -16 -16 -16 -16 -16 -16
-25 -25 -25 -25 -25 -25 -25 -25 -24 -24 -23 -23 -23 -23 -23 -23 -22 -22 -22 -22 -23 -22 -22 -21 -21 -20 -20 -21 -20 -19 -19 -19 -18 -18 -18 -18 -17 -15 -17 -16 -15 -16 -16 -16
-24 -24 -24 -24 -24 -24 -24 -24 -24 -24 -23 -22 -23 -23 -23 -22 -22 -22 -23 -23 -22 -22 -21 -21 -21 -21 -21 -21 -20 -21 -21 -20 -19 -18 -18 -18 -17 -17 -17 -16 -15 -16 -16 -16
-23 -23 -23 -23 -23 -23 -23 -23 -24 -24 -23 -22 -23 -22 -22 -23 -22 -22 -22 -23 -22 -22 -21 -21 -21 -21 -21 -21 -20 -21 -22 -22 -20 -19 -18 -18 -17 -17 -17 -16 -15 -16 -16 -16
-23 -23 -23 -23 -23 -23 -23 -23 -23 -23 -23 -22 -22 -22 -22 -22 -22 -22 -22 -22 -22 -21 -21 -21 -21 -21 -21 -21 -21 -21 -21 -21 -21 -19 -18 -18 -18 -18 -17 -17 -16 -17 -16 -16
-23 -22 -22 -23 -23 -23 -23 -23 -22 -23 -23 -22 -22 -22 -22 -22 -23 -22 -22 -22 -22 -22 -21 -21 -22 -21 -22 -21 -21 -22 -21 -21 -21 -20 -19 -18 -18 -18 -18 -17 -17 -17 -17 -17
-24 -23 -23 -23 -22 -23 -22 -23 -22 -22 -22 -22 -21 -21 -22 -22 -22 -22 -22 -22 -22 -22 -22 -21 -21 -21 -22 -22 -21 -20 -20 -21 -20 -20 -19 -19 -18 -19 -19 -18 -17 -17 -17 -17
-25 -25 -25 -24 -23 -23 -23 -22 -22 -23 -22 -22 -21 -22 -22 -22 -22 -22 -22 -22 -22 -22 -22 -22 -21 -21 -22 -22 -22 -22 -20 -20 -20 -20 -21 -20 -19 -19 -19 -18 -18 -17 -17 -17
-25 -25 -25 -25 -25 -25 -24 -24 -23 -23 -23 -23 -22 -22 -23 -22 -23 -22 -22 -22 -22 -22 -22 -22 -21 -21 -21 -22 -21 -21 -21 -19 -20 -20 -21 -21 -21 -20 -19 -18 -18 -18 -17 -17
-26 -26 -26 -26 -26 -26 -27 -26 -25 -24 -24 -24 -23 -22 -23 -23 -23 -23 -22 -23 -23 -22 -22 -22 -22 -21 -21 -21 -20 -21 -21 -20 -19 -20 -21 -21 -20 -20 -20 -19 -18 -18 -18 -18
-27 -27 -27 -27 -26 -26 -26 -25 -25 -25 -26 -26 -25 -24 -24 -24 -24 -23 -23 -23 -23 -23 -23 -22 -22 -22 -21 -20 -20 -21 -20 -20 -20 -20 -21 -21 -21 -20 -19 -19 -18 -18 -18 -18
-29 -28 -27 -27 -26 -26 -26 -26 -26 -25 -25 -26 -26 -25 -25 -25 -25 -24 -23 -24 -24 -24 -23 -22 -22 -22 -21 -20 -20 -21 -20 -19 -19 -20 -20 -20 -20 -20 -19 -19 -19 -19 -18 -17
-27 -27 -27 -27 -27 -27 -26 -26 -26 -26 -26 -27 -26 -25 -25 -25 -25 -25 -24 -24 -24 -24 -24 -23 -23 -22 -21 -20 -20 -22 -22 -21 -21 -19 -19 -19 -20 -20 -19 -19 -19 -19 -18 -18
-27 -27 -28 -27 -27 -27 -27 -26 -26 -26 -26 -26 -25 -25 -25 -25 -25 -25 -25 -25 -25 -24 -23 -23 -22 -22 -22 -22 -22 -22 -22 -22 -23 -22 -20 -20 -20 -20 -20 -19 -20 -19 -19 -19
-27 -27 -28 -28 -27 -27 -27 -27 -27 -26 -26 -25 -25 -26 -26 -26 -25 -25 -25 -25 -24 -24 -23 -23 -23 -22 -22 -22 -22 -22 -23 -22 -22 -22 -22 -21 -20 -21 -20 -19 -19 -19 -20 -20
-27 -27 -27 -28 -27 -27 -27 -27 -27 -26 -25 -26 -25 -26 -25 -25 -25 -25 -25 -25 -25 -24 -24 -24 -23 -22 -22 -22 -22 -22 -22 -21 -21 -22 -21 -21 -21 -20 -20 -20 -20 -19 -20 -20
-28 -28 -27 -27 -27 -27 -26 -26 -25 -25 -25 -25 -25 -25 -25 -25 -25 -25 -25 -25 -25 -24 -24 -23 -22 -23 -22 -22 -22 -21 -21 -21 -22 -21 -21 -21 -21 -20 -20 -20 -20 -20 -20 -20
-27 -27 -26 -26 -26 -26 -25 -25 -25 -25 -25 -26 -26 -26 -25 -25 -25 -25 -25 -25 -24 -24 -23 -22 -23 -22 -22 -21 -21 -22 -22 -21 -21 -21 -21 -21 -21 -21 -20 -20 -20 -21 -21 -21
-27 -26 -26 -26 -26 -26 -25 -25 -25 -25 -25 -25 -25 -25 -25 -25 -25 -25 -25 -24 -24 -23 -23 -23 -23 -23 -22 -22 -22 -22 -22 -21 -21 -21 -20 -20 -21 -21 -21 -21 -21 -21 -21 -20
-26 -26 -26 -26 -26 -25 -25 -25 -25 -25 -25 -25 -25 -25 -25 -25 -25 -25 -24 -23 -23 -23 -22 -23 -23 -22 -23 -22 -22 -22 -21 -21 -21 -21 -21 -21 -21 -21 -21 -21 -21 -21 -21 -21
-25 -25 -25 -26 -25 -25 -25 -25 -25 -25 -25 -25 -24 -24 -24 -25 -24 -24 -23 -23 -23 -23 -23 -22 -22 -22 -22 -22 -22 -22 -21 -21 -21 -21 -21 -21 -21 -21 -21 -21 -21 -21 -21 -21

GFSNW_500_temp_087.txt.gz
Temp
-26 -26 -26 -26 -26 -26 -26 -26 -26 -27 -26 -25 -24 -22 -22 -21 -21 -20 -20 -20 -19 -19 -19 -19 -19 -18 -17 -17 -17 -16 -16 -15 -15 -16 -16 -16 -15 -15 -15 -14 -14 -14 -14 -12
-27 -27 -26 -26 -26 -26 -26 -27 -28 -28 -27 -26 -24 -23 -22 -22 -22 -21 -20 -20 -19 -19 -19 -19 -19 -18 -18 -17 -17 -16 -15 -15 -15 -15 -17 -17 -16 -15 -15 -15 -14 -13 -12 -12
-27 -27 -27 -27 -26 -27 -27 -28 -28 -28 -27 -26 -25 -24 -24 -23 -22 -22 -21 -20 -20 -19 -19 -19 -18 -19 -18 -17 -17 -16 -15 -15 -15 -15 -16 -16 -16 -16 -16 -16 -14 -13 -13 -13
-27 -27 -27 -26 -27 -28 -27 -27 -27 -27 -27 -26 -25 -25 -24 -23 -22 -22 -21 -20 -20 -20 -20 -19 -19 -18 -18 -18 -17 -16 -16 -15 -15 -15 -15 -16 -16 -16 -16 -15 -14 -14 -14 -14
-27 -27 -26 -27 -28 -28 -27 -27 -27 -27 -27 -26 -26 -25 -24 -24 -23 -22 -22 -22 -21 -20 -20 -20 -20 -18 -17 -17 -17 -17 -16 -16 -15 -15 -17 -17 -16 -16 -17 -16 -16 -15 -15 -14
-28 -28 -28 -28 -28 -28 -27 -27 -27 -27 -27 -27 -26 -25 -25 -24 -24 -23 -22 -23 -22 -21 -22 -20 -19 -18 -18 -19 -19 -20 -18 -19 -19 -17 -19 -19 -18 -16 -17 -16 -17 -16 -15 -16
-28 -29 -28 -28 -28 -27 -27 -27 -28 -28 -27 -27 -26 -26 -25 -25 -25 -24 -23 -23 -22 -24 -22 -21 -21 -21 -20 -20 -21 -21 -20 -21 -20 -19 -20 -20 -16 -19 -18 -17 -17 -17 -16 -16
-27 -27 -28 -28 -27 -27 -27 -27 -27 -27 -27 -27 -26 -26 -25 -25 -25 -24 -24 -25 -25 -25 -24 -23 -23 -22 -21 -22 -21 -21 -21 -21 -21 -20 -20 -19 -18 -20 -20 -19 -16 -17 -17 -17
-27 -26 -27 -27 -27 -28 -27 -27 -27 -27 -27 -26 -27 -27 -26 -26 -25 -25 -25 -25 -25 -24 -24 -23 -23 -22 -21 -21 -21 -21 -21 -21 -21 -20 -21 -19 -19 -20 -19 -19 -17 -18 -17 -17
-26 -26 -26 -26 -27 -28 -28 -27 -27 -27 -26 -27 -27 -26 -27 -26 -25 -25 -24 -24 -25 -24 -23 -23 -22 -21 -21 -22 -22 -22 -22 -22 -21 -21 -21 -19 -20 -20 -19 -19 -18 -18 -18 -17
-25 -25 -25 -26 -26 -26 -26 -27 -27 -26 -27 -27 -27 -27 -26 -25 -25 -25 -24 -24 -24 -23 -23 -23 -22 -22 -22 -22 -22 -22 -22 -21 -21 -21 -21 -21 -22 -21 -20 -19 -18 -18 -18 -18
-25 -25 -25 -25 -26 -26 -26 -26 -27 -27 -26 -26 -26 -26 -26 -25 -25 -25 -24 -24 -24 -24 -23 -23 -23 -22 -22 -22 -22 -22 -22 -22 -21 -21 -22 -21 -21 -21 -20 -19 -19 -18 -18 -18
-24 -24 -25 -25 -25 -26 -26 -26 -26 -27 -26 -25 -25 -25 -25 -24 -24 -24 -24 -24 -24 -24 -23 -23 -23 -22 -22 -22 -22 -22 -22 -22 -21 -21 -22 -22 -22 -21 -21 -20 -20 -18 -18 -18
-24 -24 -24 -25 -25 -25 -25 -25 -25 -25 -25 -24 -24 -24 -24 -24 -24 -24 -24 -24 -24 -24 -23 -23 -22 -22 -22 -22 -21 -21 -22 -21 -21 -21 -21 -22 -22 -22 -22 -21 -20 -19 -18 -18
-25 -25 -24 -25 -25 -25 -25 -25 -25 -25 -25 -24 -24 -24 -24 -24 -23 -23 -23 -23 -24 -24 -23 -22 -22 -22 -21 -21 -21 -21 -22 -22 -21 -21 -21 -21 -22 -22 -22 -20 -20 -20 -19 -18
-27 -26 -26 -25 -25 -25 -25 -25 -24 -24 -24 -24 -24 -24 -24 -23 -23 -23 -23 -23 -23 -23 -23 -22 -21 -22 -21 -21 -21 -21 -21 -21 -21 -22 -22 -22 -23 -23 -22 -21 -20 -20 -19 -19
-27 -27 -27 -27 -27 -26 -24 -24 -25 -25 -25 -25 -25 -24 -23 -23 -23 -23 -23 -23 -23 -23 -22 -22 -22 -22 -22 -21 -21 -21 -22 -22 -22 -21 -21 -22 -22 -22 -22 -21 -20 -20 -19 -19
-27 -26 -26 -27 -27 -27 -27 -26 -26 -26 -26 -25 -25 -24 -24 -23 -23 -23 -23 -23 -23 -23 -22 -22 -22 -22 -21 -21 -21 -22 -22 -22 -22 -22 -21 -21 -22 -21 -21 -21 -21 -20 -20 -19
-27 -27 -27 -27 -27 -27 -26 -27 -27 -27 -27 -26 -25 -25 -25 -25 -24 -24 -24 -24 -23 -23 -23 -22 -22 -21 -21 -21 -22 -22 -22 -22 -22 -22 -22 -21 -22 -22 -21 -21 -21 -20 -20 -20
-28 -28 -28 -28 -27 -27 -27 -28 -27 -27 -27 -26 -25 -26 -25 -26 -26 -25 -25 -24 -24 -23 -23 -23 -22 -21 -22 -22 -22 -22 -22 -22 -22 -22 -22 -22 -22 -22 -22 -21 -20 -21 -20 -20
-28 -28 -28 -27 -27 -28 -29 -28 -27 -27 -27 -27 -26 -26 -26 -26 -26 -26 -26 -25 -25 -24 -24 -23 -23 -22 -23 -23 -23 -23 -23 -23 -22 -22 -22 -22 -22 -22 -21 -22 -22 -21 -20 -21
-28 -28 -28 -28 -28 -28 -28 -28 -27 -27 -27 -26 -27 -27 -26 -26 -26 -26 -26 -26 -26 -25 -24 -24 -23 -23 -23 -24 -24 -24 -23 -23 -23 -23 -23 -23 -23 -22 -22 -22 -22 -22 -21 -21
-28 -28 -28 -28 -28 -28 -27 -27 -26 -26 -26 -26 -27 -26 -26 -26 -26 -26 -26 -26 -25 -25 -25 -24 -24 -24 -24 -25 -25 -25 -24 -24 -23 -23 -23 -23 -23 -23 -23 -22 -22 -22 -21 -21
-28 -28 -28 -28 -27 -27 -26 -26 -27 -27 -27 -26 -27 -26 -26 -26 -26 -26 -26 -26 -25 -25 -25 -24 -24 -25 -25 -25 -25 -24 -24 -23 -23 -23 -23 -22 -22 -22 -22 -22 -22 -22 -22 -22
-27 -28 -28 -27 -27 -27 -27 -27 -27 -27 -26 -26 -26 -26 -26 -26 -26 -26 -26 -26 -25 -25 -24 -25 -25 -25 -25 -25 -25 -24 -24 -23 -23 -23 -22 -22 -22 -22 -22 -22 -22 -22 -22 -22
-27 -27 -27 -27 -26 -26 -26 -26 -26 -26 -26 -26 -26 -26 -26 -26 -26 -26 -26 -25 -25 -25 -25 -25 -25 -25 -24 -24 -24 -24 -24 -24 -23 -22 -22 -22 -22 -22 -22 -22 -22 -22 -22 -22
-27 -27 -27 -27 -26 -26 -26 -26 -26 -26 -26 -26 -26 -26 -25 -26 -25 -26 -26 -25 -25 -25 -25 -25 -25 -24 -24 -24 -24 -24 -24 -24 -23 -23 -23 -23 -22 -23 -22 -22 -21 -22 -21 -22

GFSNW_500_temp_093.txt.gz
Temp
-31 -31 -30 -30 -29 -29 -28 -28 -27 -27 -27 -26 -25 -25 -25 -25 -24 -24 -24 -24 -24 -23 -22 -22 -22 -22 -22 -20 -20 -19 -18 -18 -18 -18 -17 -17 -17 -17 -17 -17 -17 -18 -18 -16
-30 -30 -30 -30 -29 -29 -29 -28 -28 -28 -27 -26 -26 -25 -25 -25 -24 -25 -26 -25 -25 -24 -23 -23 -22 -22 -21 -21 -20 -19 -19 -18 -18 -18 -18 -17 -18 -18 -17 -17 -17 -17 -17 -16
-29 -29 -29 -29 -29 -29 -29 -29 -28 -28 -27 -27 -26 -26 -26 -26 -25 -26 -26 -26 -25 -24 -24 -23 -23 -22 -21 -21 -20 -19 -19 -18 -18 -19 -19 -18 -17 -17 -17 -17 -17 -16 -16 -17
-28 -29 -29 -29 -29 -29 -29 -29 -28 -28 -27 -27 -27 -27 -27 -27 -27 -27 -27 -26 -25 -25 -24 -23 -23 -22 -22 -21 -20 -20 -19 -18 -18 -18 -18 -18 -17 -17 -17 -17 -17 -16 -16 -16
-28 -29 -29 -29 -29 -29 -29 -28 -28 -28 -28 -27 -27 -28 -28 -28 -28 -28 -28 -26 -26 -25 -24 -24 -24 -23 -23 -21 -20 -20 -19 -19 -18 -18 -18 -18 -17 -17 -17 -16 -16 -16 -16 -15
-29 -29 -29 -29 -29 -29 -28 -28 -28 -28 -29 -28 -28 -28 -28 -28 -28 -28 -27 -28 -26 -25 -24 -24 -23 -22 -22 -21 -20 -20 -20 -19 -19 -18 -18 -17 -17 -17 -17 -17 -17 -17 -16 -16
-28 -29 -29 -29 -29 -28 -28 -28 -29 -29 -29 -29 -28 -29 -29 -28 -29 -28 -28 -27 -27 -26 -24 -24 -23 -23 -22 -22 -21 -20 -20 -19 -19 -18 -18 -17 -18 -17 -17 -16 -16 -16 -16 -16
-28 -28 -28 -29 -29 -29 -30 -29 -30 -30 -30 -29 -29 -29 -29 -29 -29 -28 -28 -28 -27 -25 -25 -24 -23 -22 -22 -21 -21 -21 -20 -20 -19 -19 -18 -18 -18 -17 -17 -17 -18 -17 -16 -16
-28 -28 -28 -28 -29 -29 -29 -30 -30 -30 -30 -28 -29 -29 -29 -29 -29 -28 -28 -27 -26 -26 -26 -25 -23 -23 -22 -21 -21 -20 -20 -20 -19 -19 -19 -19 -19 -18 -19 -19 -19 -18 -17 -17
-27 -27 -28 -28 -28 -29 -29 -29 -30 -29 -28 -29 -28 -28 -29 -29 -29 -28 -27 -27 -27 -26 -26 -24 -23 -23 -24 -23 -21 -21 -21 -21 -20 -20 -20 -20 -20 -20 -20 -19 -19 -18 -18 -17
-27 -27 -27 -28 -28 -28 -28 -29 -29 -29 -29 -29 -28 -28 -28 -28 -28 -28 -27 -27 -26 -26 -25 -24 -24 -23 -23 -22 -22 -23 -22 -21 -21 -21 -20 -20 -21 -20 -20 -20 -19 -18 -18 -18
-26 -26 -27 -27 -27 -28 -28 -28 -29 -30 -29 -29 -28 -28 -28 -28 -28 -28 -27 -27 -27 -26 -26 -26 -25 -24 -24 -23 -23 -23 -22 -22 -22 -21 -21 -21 -21 -21 -20 -19 -19 -19 -19 -19
-26 -26 -26 -26 -27 -27 -27 -28 -29 -30 -30 -29 -27 -28 -28 -28 -28 -28 -28 -27 -26 -27 -26 -26 -25 -24 -24 -23 -23 -23 -23 -22 -22 -22 -21 -21 -21 -20 -20 -20 -20 -20 -21 -20
-25 -25 -26 -26 -26 -26 -27 -28 -28 -29 -29 -29 -29 -28 -27 -28 -28 -27 -27 -27 -27 -26 -26 -26 -25 -25 -24 -24 -23 -23 -23 -23 -22 -21 -22 -21 -21 -21 -20 -20 -20 -20 -21 -20
-25 -25 -25 -25 -26 -26 -27 -27 -28 -28 -28 -28 -29 -28 -28 -28 -28 -28 -27 -26 -26 -26 -26 -26 -25 -24 -24 -23 -23 -23 -23 -22 -22 -22 -21 -21 -21 -21 -20 -20 -21 -21 -21 -20
-25 -25 -25 -25 -25 -26 -26 -26 -27 -27 -27 -27 -27 -27 -27 -27 -27 -27 -26 -26 -26 -25 -25 -25 -24 -24 -24 -24 -23 -23 -23 -22 -22 -22 -21 -21 -21 -21 -21 -21 -22 -21 -21 -21
-26 -25 -25 -25 -25 -25 -26 -26 -27 -27 -27 -26 -27 -26 -26 -26 -26 -26 -26 -26 -25 -25 -24 -24 -24 -24 -23 -23 -23 -23 -23 -22 -22 -22 -21 -22 -21 -21 -21 -21 -21 -21 -21 -20
-27 -27 -26 -26 -25 -26 -26 -26 -27 -27 -27 -27 -26 -26 -25 -25 -25 -25 -25 -25 -24 -24 -24 -24 -24 -24 -23 -22 -23 -23 -23 -22 -22 -21 -22 -22 -21 -21 -21 -21 -21 -21 -21 -21
-27 -28 -27 -27 -25 -25 -26 -26 -27 -27 -27 -26 -26 -26 -26 -26 -25 -25 -25 -24 -24 -24 -23 -23 -23 -23 -22 -22 -22 -23 -22 -23 -22 -22 -22 -21 -21 -21 -21 -21 -21 -21 -21 -21
-28 -28 -28 -27 -27 -27 -27 -27 -27 -27 -26 -25 -26 -27 -26 -26 -25 -25 -25 -25 -24 -24 -24 -24 -22 -22 -23 -22 -23 -23 -23 -22 -22 -22 -22 -21 -21 -21 -21 -21 -21 -21 -21 -21
-27 -27 -27 -28 -28 -27 -27 -27 -27 -26 -25 -24 -25 -26 -26 -26 -26 -25 -25 -24 -24 -24 -24 -23 -23 -23 -22 -23 -23 -22 -22 -22 -22 -21 -21 -21 -21 -21 -21 -21 -21 -21 -21 -21
-27 -27 -27 -28 -28 -28 -28 -27 -27 -26 -26 -26 -26 -26 -26 -25 -26 -26 -25 -24 -24 -23 -23 -23 -23 -22 -23 -23 -23 -22 -22 -22 -21 -21 -21 -21 -21 -21 -21 -21 -21 -22 -22 -22
-27 -28 -28 -28 -28 -28 -27 -27 -27 -26 -26 -27 -26 -26 -25 -25 -25 -25 -25 -25 -23 -23 -23 -23 -22 -23 -23 -23 -23 -23 -22 -22 -22 -21 -22 -22 -22 -22 -22 -21 -22 -22 -22 -22
-28 -28 -28 -28 -27 -26 -26 -26 -27 -27 -27 -27 -26 -26 -25 -25 -26 -26 -26 -25 -25 -24 -23 -22 -24 -24 -24 -24 -24 -23 -23 -23 -22 -22 -22 -22 -22 -23 -23 -23 -23 -23 -23 -23
-28 -28 -28 -27 -27 -27 -27 -28 -27 -27 -27 -27 -27 -27 -26 -26 -26 -26 -26 -26 -26 -25 -25 -25 -25 -25 -25 -25 -25 -24 -24 -24 -24 -24 -24 -24 -24 -24 -24 -24 -24 -23 -23 -23
-28 -28 -28 -28 -27 -27 -28 -28 -27 -27 -27 -27 -27 -27 -27 -26 -26 -26 -26 -26 -25 -25 -26 -26 -26 -25 -25 -25 -25 -24 -24 -24 -24 -24 -24 -24 -24 -24 -24 -24 -24 -23 -23 -23
-28 -28 -28 -27 -27 -27 -27 -27 -27 -27 -27 -27 -27 -26 -26 -26 -26 -26 -25 -26 -26 -26 -26 -26 -26 -25 -25 -25 -24 -24 -24 -24 -24 -24 -24 -24 -24 -24 -24 -24 -23 -23 -23 -23

GFSNW_500_temp_096.txt.gz
Temp
-26 -27 -28 -28 -29 -30 -30 -30 -29 -29 -28 -28 -27 -26 -26 -26 -26 -25 -24 -24 -24 -24 -24 -22 -22 -22 -21 -20 -20 -21 -21 -21 -20 -19 -19 -18 -19 -18 -19 -18 -17 -18 -17 -15
-27 -27 -28 -28 -29 -30 -30 -30 -29 -29 -28 -28 -27 -27 -26 -26 -26 -25 -25 -24 -24 -25 -25 -24 -22 -23 -22 -21 -21 -20 -21 -21 -21 -20 -19 -19 -19 -18 -19 -18 -19 -19 -17 -16
-28 -27 -27 -28 -28 -29 -30 -30 -29 -29 -28 -28 -28 -28 -27 -26 -26 -26 -25 -25 -25 -25 -25 -25 -24 -23 -22 -22 -21 -21 -22 -21 -20 -20 -20 -20 -20 -19 -19 -18 -18 -18 -18 -17
-28 -28 -28 -28 -28 -29 -29 -29 -29 -29 -29 -29 -28 -28 -28 -27 -27 -26 -26 -25 -25 -25 -26 -25 -25 -24 -23 -23 -22 -22 -22 -21 -20 -20 -20 -19 -18 -18 -18 -18 -18 -18 -17 -17
-29 -28 -28 -29 -29 -29 -29 -29 -30 -30 -29 -29 -29 -28 -28 -28 -28 -27 -27 -26 -26 -26 -26 -25 -25 -24 -24 -23 -22 -22 -22 -21 -20 -19 -20 -19 -18 -18 -18 -18 -18 -18 -18 -17
-29 -29 -29 -29 -29 -29 -29 -29 -30 -29 -29 -29 -29 -29 -28 -28 -28 -28 -28 -28 -28 -28 -27 -27 -26 -25 -24 -23 -22 -21 -21 -21 -20 -20 -20 -19 -19 -18 -18 -18 -18 -18 -17 -17
-29 -29 -29 -29 -29 -29 -29 -29 -29 -29 -29 -29 -29 -29 -29 -28 -28 -28 -28 -28 -28 -27 -27 -26 -25 -24 -23 -22 -22 -22 -22 -22 -21 -20 -20 -19 -19 -19 -18 -17 -17 -17 -17 -16
-28 -28 -29 -29 -29 -29 -29 -29 -29 -29 -29 -29 -29 -29 -29 -28 -28 -28 -28 -28 -27 -27 -27 -26 -25 -25 -24 -23 -23 -23 -23 -22 -21 -20 -19 -19 -19 -19 -18 -17 -18 -17 -17 -16
-28 -28 -29 -29 -29 -29 -29 -29 -30 -30 -30 -30 -30 -30 -29 -29 -28 -28 -28 -28 -28 -27 -27 -26 -26 -25 -24 -23 -23 -23 -22 -22 -21 -20 -19 -19 -20 -18 -18 -19 -19 -18 -18 -17
-28 -28 -28 -28 -28 -28 -29 -29 -30 -30 -30 -30 -30 -30 -30 -29 -29 -28 -28 -28 -27 -27 -26 -26 -26 -25 -24 -23 -23 -23 -22 -22 -21 -20 -20 -19 -20 -18 -19 -19 -19 -18 -17 -17
-28 -27 -28 -28 -28 -28 -29 -29 -30 -30 -30 -31 -30 -29 -29 -29 -28 -28 -28 -27 -27 -27 -26 -26 -26 -25 -24 -23 -22 -22 -22 -21 -21 -20 -20 -19 -21 -20 -20 -19 -19 -19 -19 -18
-27 -27 -27 -27 -28 -28 -28 -29 -29 -30 -30 -30 -29 -29 -28 -28 -28 -28 -27 -27 -26 -26 -26 -26 -25 -25 -24 -23 -23 -22 -22 -23 -22 -22 -22 -21 -21 -21 -21 -20 -20 -20 -19 -19
-26 -27 -27 -27 -27 -28 -28 -29 -29 -30 -30 -30 -28 -29 -28 -28 -28 -28 -27 -27 -26 -26 -26 -26 -25 -25 -24 -24 -24 -23 -23 -23 -22 -22 -22 -22 -22 -21 -21 -21 -20 -20 -20 -19
-26 -26 -26 -27 -27 -27 -28 -28 -29 -30 -30 -29 -29 -28 -28 -28 -28 -27 -27 -27 -27 -27 -27 -26 -26 -25 -25 -24 -24 -23 -23 -23 -23 -23 -22 -22 -22 -21 -21 -21 -20 -20 -20 -20
-26 -26 -26 -26 -27 -27 -28 -28 -29 -29 -30 -29 -29 -28 -28 -28 -27 -27 -27 -27 -26 -27 -27 -26 -26 -25 -25 -24 -24 -24 -24 -23 -23 -23 -23 -22 -22 -22 -21 -21 -20 -20 -20 -20
-25 -26 -26 -26 -26 -27 -28 -28 -28 -29 -29 -29 -28 -28 -27 -27 -27 -27 -27 -27 -27 -27 -26 -26 -26 -26 -25 -25 -24 -24 -24 -24 -23 -23 -22 -22 -22 -22 -21 -21 -20 -20 -20 -19
-26 -26 -26 -26 -26 -27 -27 -27 -28 -29 -29 -28 -28 -28 -28 -28 -28 -28 -28 -27 -27 -27 -26 -26 -26 -25 -25 -25 -24 -24 -23 -23 -23 -23 -22 -22 -21 -22 -21 -20 -20 -20 -21 -21
-27 -27 -26 -26 -26 -27 -27 -27 -28 -28 -28 -28 -27 -27 -27 -27 -27 -27 -27 -27 -27 -26 -25 -25 -26 -25 -25 -24 -24 -24 -23 -23 -23 -22 -22 -22 -21 -21 -21 -21 -21 -20 -21 -21
-27 -27 -27 -27 -26 -26 -27 -27 -27 -28 -27 -27 -27 -26 -27 -27 -26 -26 -26 -26 -26 -26 -25 -25 -25 -25 -25 -25 -24 -24 -23 -23 -23 -22 -22 -21 -21 -21 -21 -21 -21 -21 -20 -21
-27 -27 -27 -26 -26 -27 -27 -27 -27 -27 -27 -27 -27 -26 -26 -26 -26 -26 -25 -25 -25 -25 -25 -25 -24 -24 -24 -24 -24 -23 -23 -23 -23 -22 -22 -21 -21 -21 -21 -21 -21 -20 -21 -20
-27 -27 -27 -27 -27 -27 -27 -27 -27 -26 -26 -26 -26 -26 -26 -26 -26 -26 -26 -26 -25 -25 -25 -25 -24 -24 -24 -24 -24 -23 -23 -22 -22 -22 -21 -21 -21 -21 -21 -21 -21 -21 -21 -21
-27 -28 -28 -28 -28 -28 -28 -27 -26 -26 -26 -26 -26 -26 -26 -26 -26 -26 -26 -25 -25 -24 -25 -25 -24 -24 -24 -24 -23 -23 -23 -22 -22 -21 -21 -21 -21 -21 -21 -21 -21 -21 -21 -21
-28 -28 -28 -28 -28 -28 -28 -27 -27 -26 -27 -26 -26 -26 -26 -26 -26 -26 -25 -25 -25 -25 -25 -24 -24 -24 -24 -24 -23 -23 -23 -22 -22 -22 -22 -22 -21 -21 -21 -21 -21 -21 -21 -21
-28 -27 -27 -28 -27 -27 -27 -27 -27 -27 -27 -27 -26 -26 -26 -26 -26 -25 -25 -25 -25 -25 -24 -24 -25 -24 -24 -24 -24 -23 -23 -22 -22 -22 -22 -21 -21 -21 -21 -21 -21 -21 -21 -21
-27 -27 -27 -27 -27 -27 -27 -27 -27 -27 -27 -27 -27 -26 -26 -26 -26 -26 -26 -26 -25 -25 -25 -25 -25 -25 -25 -25 -25 -24 -24 -23 -23 -23 -23 -23 -23 -23 -23 -23 -23 -23 -23 -23
-28 -28 -27 -27 -27 -27 -28 -28 -28 -27 -27 -27 -27 -27 -27 -27 -26 -26 -26 -26 -25 -25 -25 -25 -26 -26 -25 -25 -25 -25 -24 -24 -24 -24 -23 -24 -24 -24 -23 -23 -23 -23 -23 -23
-28 -28 -28 -28 -28 -28 -28 -28 -28 -27 -27 -27 -27 -27 -27 -27 -26 -26 -26 -26 -26 -26 -26 -26 -26 -26 -26 -26 -25 -25 -25 -25 -25 -24 -24 -24 -24 -23 -23 -23 -24 -24 -24 -24

GFSNW_500_temp_102.txt.gz
Temp
-23 -24 -24 -24 -24 -24 -25 -28 -28 -28 -29 -29 -29 -29 -29 -29 -29 -28 -27 -27 -27 -25 -24 -23 -23 -23 -23 -22 -21 -21 -20 -19 -19 -20 -20 -19 -19 -19 -19 -19 -18 -18 -17 -17
-24 -24 -24 -24 -25 -25 -27 -27 -28 -28 -29 -29 -29 -29 -29 -29 -29 -28 -28 -28 -27 -25 -25 -25 -23 -23 -23 -22 -21 -21 -20 -21 -20 -21 -20 -20 -20 -20 -20 -20 -19 -18 -18 -18
-24 -25 -25 -25 -25 -26 -27 -27 -28 -28 -29 -29 -29 -29 -29 -29 -28 -28 -28 -27 -27 -26 -26 -25 -24 -24 -24 -23 -22 -22 -20 -20 -20 -20 -19 -20 -20 -20 -20 -20 -19 -18 -18 -18
-25 -25 -25 -26 -26 -26 -27 -27 -28 -28 -28 -29 -29 -29 -29 -28 -28 -28 -28 -27 -27 -26 -26 -26 -25 -24 -24 -24 -23 -21 -21 -20 -21 -21 -20 -20 -20 -20 -19 -19 -19 -18 -18 -19
-25 -25 -26 -27 -27 -27 -27 -28 -28 -28 -28 -29 -29 -28 -28 -29 -28 -28 -28 -28 -27 -27 -26 -26 -25 -25 -25 -25 -24 -23 -22 -22 -21 -22 -21 -20 -20 -20 -20 -19 -19 -19 -18 -19
-25 -26 -26 -27 -27 -27 -28 -28 -28 -28 -29 -29 -29 -29 -29 -29 -28 -28 -28 -28 -27 -27 -26 -26 -25 -25 -25 -24 -25 -24 -22 -22 -22 -22 -21 -21 -20 -21 -20 -20 -19 -18 -19 -19
-26 -26 -26 -27 -27 -27 -28 -28 -28 -29 -29 -29 -29 -29 -29 -29 -29 -28 -28 -28 -28 -27 -27 -26 -25 -25 -25 -24 -25 -24 -24 -24 -23 -22 -22 -22 -22 -21 -21 -20 -20 -20 -19 -19
-26 -26 -27 -27 -27 -27 -28 -28 -28 -29 -29 -29 -29 -29 -29 -29 -29 -28 -28 -28 -28 -28 -27 -26 -26 -26 -25 -25 -24 -24 -24 -24 -23 -23 -22 -22 -22 -21 -21 -21 -20 -20 -20 -19
-26 -26 -27 -28 -28 -28 -28 -29 -29 -29 -29 -29 -29 -29 -29 -29 -29 -29 -28 -28 -28 -28 -28 -27 -27 -27 -26 -26 -24 -24 -23 -23 -23 -23 -23 -22 -22 -21 -21 -20 -20 -19 -19 -19
-26 -26 -27 -27 -28 -28 -28 -29 -29 -29 -29 -30 -29 -29 -29 -29 -29 -29 -28 -28 -28 -28 -28 -27 -27 -27 -26 -25 -25 -24 -23 -23 -23 -23 -23 -22 -22 -22 -21 -21 -20 -19 -19 -18
-26 -27 -27 -28 -27 -28 -28 -29 -29 -29 -29 -30 -30 -30 -29 -29 -29 -29 -29 -29 -28 -28 -28 -27 -27 -26 -26 -26 -25 -24 -24 -23 -23 -23 -22 -22 -22 -21 -21 -21 -20 -20 -19 -19
-26 -27 -28 -28 -27 -27 -28 -28 -28 -28 -29 -30 -30 -30 -30 -30 -29 -29 -29 -29 -29 -28 -28 -27 -27 -27 -26 -25 -24 -23 -23 -23 -23 -23 -23 -23 -23 -22 -21 -21 -20 -20 -20 -20
-26 -27 -27 -27 -27 -27 -27 -28 -28 -28 -29 -29 -30 -31 -31 -30 -30 -29 -28 -28 -28 -28 -28 -28 -27 -26 -26 -25 -24 -24 -23 -23 -23 -23 -23 -22 -22 -22 -22 -22 -21 -21 -20 -20
-26 -26 -26 -26 -27 -27 -27 -27 -28 -29 -29 -30 -31 -30 -30 -30 -29 -29 -28 -28 -28 -28 -28 -27 -27 -26 -26 -25 -25 -24 -23 -23 -23 -23 -23 -23 -22 -22 -22 -22 -21 -21 -21 -21
-26 -26 -26 -26 -27 -27 -28 -28 -28 -29 -29 -30 -30 -30 -30 -30 -29 -29 -28 -28 -28 -28 -28 -27 -27 -27 -26 -25 -25 -23 -24 -23 -23 -23 -23 -22 -22 -22 -22 -22 -21 -22 -22 -21
-26 -26 -26 -26 -27 -27 -28 -28 -28 -29 -29 -29 -30 -30 -30 -29 -29 -28 -28 -28 -28 -28 -28 -27 -27 -27 -26 -25 -25 -25 -24 -24 -23 -22 -22 -22 -22 -22 -22 -22 -22 -22 -22 -21
-27 -27 -26 -26 -27 -27 -27 -28 -29 -29 -29 -30 -30 -30 -29 -28 -28 -28 -28 -28 -28 -27 -27 -27 -27 -27 -26 -26 -25 -24 -24 -24 -23 -23 -22 -22 -22 -23 -23 -22 -22 -22 -22 -22
-27 -27 -27 -27 -27 -27 -27 -28 -29 -29 -29 -29 -29 -29 -29 -28 -28 -28 -28 -27 -27 -27 -27 -27 -27 -26 -26 -26 -25 -25 -24 -24 -24 -24 -23 -23 -23 -23 -23 -22 -22 -22 -22 -22
-28 -28 -28 -27 -27 -27 -28 -29 -28 -28 -29 -28 -28 -28 -28 -28 -28 -28 -27 -27 -27 -27 -26 -27 -26 -26 -26 -25 -25 -25 -24 -24 -24 -24 -24 -23 -23 -22 -23 -22 -22 -22 -22 -22
-28 -28 -28 -27 -27 -28 -28 -29 -28 -27 -27 -28 -28 -28 -28 -27 -27 -27 -27 -27 -27 -26 -27 -27 -26 -26 -25 -25 -25 -25 -24 -24 -24 -24 -24 -23 -23 -22 -22 -22 -22 -22 -22 -22
-28 -27 -28 -28 -28 -28 -28 -29 -28 -26 -26 -27 -28 -27 -27 -27 -27 -27 -27 -27 -27 -27 -27 -26 -26 -25 -25 -25 -25 -24 -24 -24 -24 -24 -24 -23 -23 -23 -23 -23 -23 -22 -22 -22
-28 -28 -28 -28 -28 -28 -28 -29 -28 -27 -27 -27 -27 -27 -27 -27 -27 -27 -27 -27 -27 -26 -26 -26 -25 -25 -25 -25 -25 -24 -24 -24 -24 -24 -23 -23 -23 -23 -23 -23 -23 -22 -22 -22
-28 -28 -28 -28 -28 -28 -27 -27 -27 -27 -27 -27 -27 -27 -27 -27 -27 -27 -26 -27 -26 -26 -26 -25 -25 -25 -25 -25 -25 -25 -25 -24 -24 -24 -24 -24 -23 -24 -23 -23 -23 -23 -22 -22
-29 -28 -28 -28 -28 -28 -27 -28 -28 -28 -27 -27 -27 -27 -27 -27 -27 -27 -27 -27 -26 -26 -26 -26 -25 -26 -25 -25 -25 -25 -25 -24 -24 -24 -24 -24 -24 -23 -23 -23 -23 -23 -22 -22
-29 -28 -28 -28 -28 -28 -28 -28 -28 -27 -27 -27 -27 -27 -27 -27 -27 -26 -26 -26 -26 -26 -26 -26 -26 -25 -26 -26 -26 -25 -25 -25 -25 -24 -24 -24 -24 -24 -23 -23 -23 -23 -22 -22
-28 -28 -28 -28 -28 -28 -28 -28 -28 -28 -27 -27 -27 -26 -26 -26 -26 -26 -26 -26 -26 -26 -26 -26 -26 -25 -25 -26 -26 -25 -25 -25 -25 -25 -24 -24 -24 -23 -23 -23 -23 -23 -23 -23
-28 -28 -28 -28 -28 -28 -28 -28 -28 -28 -28 -27 -27 -27 -27 -27 -26 -27 -26 -26 -26 -26 -26 -26 -26 -26 -26 -26 -26 -26 -26 -26 -25 -25 -25 -24 -24 -24 -23 -23 -23 -22 -23 -23

GFSNW_500_temp_105.txt.gz
Temp
-23 -23 -23 -23 -23 -23 -23 -24 -24 -25 -27 -27 -28 -28 -29 -29 -29 -29 -28 -28 -28 -27 -26 -24 -24 -23 -23 -22 -22 -22 -22 -21 -20 -20 -20 -19 -19 -19 -20 -19 -18 -18 -18 -17
-23 -23 -23 -23 -23 -24 -24 -24 -26 -26 -27 -27 -28 -28 -29 -29 -29 -29 -28 -28 -28 -27 -27 -26 -25 -24 -24 -23 -23 -21 -22 -21 -20 -20 -20 -20 -20 -19 -20 -20 -20 -19 -19 -18
-23 -24 -24 -24 -24 -24 -24 -25 -26 -27 -27 -27 -28 -29 -29 -29 -29 -28 -28 -28 -28 -28 -27 -27 -26 -25 -24 -23 -23 -23 -22 -22 -21 -21 -20 -21 -20 -19 -20 -20 -20 -20 -19 -19
-24 -24 -24 -24 -24 -24 -25 -26 -27 -27 -27 -27 -28 -29 -29 -29 -29 -29 -28 -28 -28 -27 -27 -27 -27 -26 -25 -25 -24 -23 -23 -22 -22 -21 -21 -20 -20 -20 -20 -20 -20 -20 -19 -19
-24 -25 -25 -24 -25 -25 -26 -26 -27 -27 -28 -28 -28 -29 -29 -29 -29 -29 -28 -28 -28 -27 -27 -26 -26 -26 -26 -26 -25 -23 -23 -22 -22 -20 -21 -21 -21 -20 -20 -20 -20 -20 -19 -19
-25 -25 -25 -25 -25 -25 -26 -27 -27 -27 -28 -28 -28 -29 -29 -29 -29 -28 -28 -28 -28 -27 -26 -26 -26 -25 -24 -24 -24 -24 -23 -24 -23 -24 -21 -22 -21 -20 -20 -19 -20 -20 -19 -19
-25 -25 -25 -25 -25 -26 -26 -27 -27 -27 -28 -28 -29 -29 -29 -29 -29 -29 -28 -28 -28 -28 -27 -26 -25 -25 -25 -24 -24 -24 -24 -24 -23 -23 -23 -23 -23 -21 -21 -20 -19 -20 -19 -19
-25 -25 -25 -25 -26 -26 -27 -27 -28 -28 -28 -28 -29 -29 -29 -29 -29 -29 -29 -28 -28 -28 -28 -27 -26 -26 -25 -25 -25 -25 -25 -24 -25 -24 -23 -23 -24 -22 -21 -21 -20 -20 -20 -19
-26 -25 -26 -26 -26 -26 -27 -28 -28 -28 -28 -29 -29 -29 -29 -29 -29 -29 -29 -29 -28 -28 -28 -28 -27 -26 -25 -25 -25 -25 -25 -24 -24 -24 -24 -23 -23 -22 -22 -21 -21 -21 -20 -20
-26 -26 -26 -26 -26 -26 -27 -28 -28 -28 -28 -29 -29 -29 -29 -29 -29 -29 -29 -29 -29 -28 -28 -28 -28 -27 -26 -26 -26 -25 -25 -24 -23 -23 -23 -23 -23 -22 -22 -22 -21 -21 -20 -20
-26 -26 -26 -26 -26 -27 -28 -28 -28 -28 -29 -29 -30 -29 -30 -29 -29 -29 -29 -29 -29 -28 -28 -28 -27 -27 -27 -26 -26 -26 -25 -25 -23 -23 -23 -22 -22 -22 -22 -21 -21 -21 -21 -21
-26 -26 -26 -26 -26 -27 -28 -28 -28 -28 -29 -29 -29 -30 -30 -30 -29 -29 -29 -29 -29 -28 -28 -28 -27 -27 -27 -26 -26 -25 -25 -24 -24 -23 -22 -23 -22 -22 -22 -22 -21 -21 -21 -21
-26 -27 -26 -26 -27 -27 -27 -27 -27 -28 -28 -29 -29 -30 -29 -30 -29 -28 -29 -29 -29 -28 -28 -28 -28 -27 -26 -26 -25 -24 -23 -23 -23 -24 -23 -23 -22 -22 -22 -22 -21 -21 -21 -21
-27 -26 -26 -27 -27 -26 -26 -27 -27 -28 -29 -29 -30 -30 -30 -30 -29 -29 -29 -29 -29 -28 -28 -28 -27 -27 -26 -26 -25 -25 -24 -24 -24 -23 -23 -23 -23 -23 -23 -22 -22 -22 -22 -21
-27 -26 -26 -26 -26 -26 -27 -27 -27 -28 -29 -29 -30 -30 -30 -30 -30 -29 -29 -29 -29 -28 -28 -28 -28 -27 -27 -26 -25 -25 -24 -24 -24 -23 -23 -23 -23 -23 -23 -22 -23 -22 -22 -22
-27 -27 -27 -26 -26 -26 -26 -27 -28 -29 -29 -30 -30 -31 -31 -30 -30 -29 -29 -29 -28 -28 -28 -28 -28 -27 -27 -26 -26 -25 -24 -24 -24 -23 -23 -23 -23 -23 -23 -23 -23 -22 -22 -22
-27 -27 -27 -27 -26 -26 -27 -28 -28 -29 -30 -30 -30 -30 -30 -30 -29 -28 -28 -28 -28 -28 -28 -28 -28 -27 -27 -26 -26 -25 -25 -24 -24 -23 -23 -22 -23 -23 -22 -22 -23 -22 -22 -22
-28 -27 -27 -27 -27 -27 -27 -28 -29 -30 -30 -30 -30 -30 -30 -30 -29 -28 -28 -28 -28 -27 -27 -28 -27 -27 -27 -26 -26 -25 -25 -25 -24 -24 -24 -23 -23 -23 -22 -23 -22 -22 -22 -22
-28 -28 -28 -27 -26 -27 -28 -29 -29 -29 -29 -29 -29 -30 -29 -29 -29 -29 -28 -28 -27 -27 -27 -27 -27 -27 -26 -26 -26 -26 -25 -25 -25 -24 -24 -24 -23 -23 -23 -23 -23 -23 -23 -23
-29 -28 -27 -27 -28 -28 -28 -29 -29 -29 -28 -29 -29 -29 -29 -28 -29 -28 -28 -27 -27 -27 -27 -27 -26 -26 -26 -26 -26 -26 -25 -25 -24 -24 -24 -24 -23 -23 -23 -23 -23 -23 -23 -22
-29 -28 -28 -28 -28 -29 -29 -29 -28 -27 -28 -28 -29 -28 -28 -28 -28 -28 -28 -27 -27 -26 -26 -26 -26 -25 -25 -25 -25 -25 -25 -25 -24 -24 -24 -24 -23 -23 -23 -23 -23 -23 -23 -22
-28 -28 -28 -28 -29 -29 -29 -28 -27 -27 -28 -28 -28 -28 -27 -28 -27 -27 -27 -27 -27 -27 -26 -26 -25 -26 -25 -25 -25 -25 -24 -24 -24 -24 -24 -23 -23 -23 -23 -23 -23 -23 -22 -23
-28 -29 -29 -29 -29 -29 -28 -27 -27 -27 -27 -28 -28 -27 -27 -27 -27 -27 -27 -27 -27 -27 -26 -26 -26 -25 -25 -25 -24 -24 -24 -24 -24 -24 -24 -24 -24 -24 -23 -23 -23 -23 -23 -23
-29 -29 -29 -28 -28 -28 -27 -28 -28 -28 -28 -27 -27 -27 -27 -27 -27 -27 -27 -27 -27 -27 -26 -26 -26 -26 -26 -25 -25 -25 -25 -25 -25 -25 -24 -24 -24 -24 -23 -23 -23 -23 -23 -23
-29 -29 -28 -28 -28 -28 -28 -28 -28 -29 -28 -27 -27 -27 -27 -27 -27 -27 -27 -27 -27 -26 -26 -26 -26 -26 -26 -26 -26 -26 -26 -25 -25 -25 -25 -25 -25 -24 -24 -24 -24 -23 -23 -23
-29 -29 -28 -28 -28 -29 -29 -29 -28 -28 -28 -28 -28 -27 -27 -27 -27 -27 -27 -27 -27 -26 -26 -26 -26 -26 -26 -26 -26 -26 -26 -26 -26 -25 -25 -25 -25 -24 -24 -24 -24 -23 -23 -23
-29 -29 -29 -28 -29 -29 -29 -29 -29 -28 -28 -28 -27 -27 -27 -27 -27 -27 -27 -27 -27 -27 -26 -26 -26 -26 -26 -26 -26 -26 -26 -26 -26 -26 -26 -25 -25 -25 -24 -24 -24 -24 -23 -23

GFSNW_500_temp_108.txt.gz
Temp
-23 -22 -23 -23 -22 -22 -23 -23 -23 -23 -23 -24 -24 -26 -27 -28 -28 -28 -28 -28 -28 -28 -28 -27 -26 -25 -24 -23 -23 -23 -23 -23 -22 -22 -21 -21 -20 -19 -20 -19 -18 -18 -17 -16
-23 -23 -23 -23 -23 -23 -24 -24 -24 -24 -24 -24 -26 -27 -27 -28 -28 -29 -28 -28 -28 -28 -28 -27 -27 -26 -25 -24 -23 -23 -23 -23 -22 -22 -22 -22 -21 -20 -20 -19 -19 -19 -18 -17
-23 -23 -23 -23 -23 -23 -24 -24 -24 -24 -25 -25 -26 -27 -27 -28 -28 -28 -29 -28 -28 -28 -28 -28 -27 -27 -26 -25 -25 -24 -23 -22 -22 -22 -22 -22 -21 -21 -20 -20 -20 -18 -18 -18
-24 -24 -24 -24 -24 -24 -24 -25 -25 -25 -25 -26 -27 -27 -28 -28 -28 -28 -28 -28 -27 -28 -28 -27 -27 -27 -26 -25 -25 -24 -24 -23 -23 -22 -22 -22 -21 -21 -20 -20 -20 -20 -19 -19
-24 -24 -24 -24 -24 -24 -25 -25 -25 -25 -26 -26 -27 -27 -28 -28 -29 -29 -29 -28 -28 -27 -28 -27 -26 -26 -26 -26 -25 -25 -24 -24 -23 -22 -22 -22 -21 -21 -20 -20 -20 -19 -19 -19
-24 -25 -25 -25 -25 -25 -25 -25 -25 -25 -26 -27 -27 -28 -28 -29 -29 -29 -28 -28 -28 -28 -28 -27 -27 -26 -26 -26 -25 -26 -25 -25 -25 -23 -23 -21 -21 -21 -20 -20 -20 -20 -20 -20
-25 -25 -25 -25 -25 -25 -25 -26 -25 -26 -27 -27 -28 -28 -28 -29 -29 -29 -29 -29 -28 -28 -28 -28 -28 -27 -26 -25 -25 -25 -25 -24 -24 -24 -23 -22 -22 -21 -21 -20 -20 -20 -20 -20
-25 -25 -25 -25 -25 -25 -26 -26 -26 -26 -27 -28 -29 -28 -28 -29 -29 -30 -29 -29 -28 -28 -28 -28 -28 -28 -26 -26 -25 -25 -24 -24 -24 -23 -23 -24 -23 -22 -21 -21 -20 -20 -20 -20
-26 -26 -26 -26 -26 -25 -26 -26 -26 -27 -27 -28 -29 -29 -29 -29 -29 -30 -29 -29 -29 -29 -28 -28 -28 -28 -27 -26 -26 -25 -25 -24 -24 -24 -23 -23 -23 -23 -23 -22 -21 -20 -20 -20
-26 -26 -26 -26 -26 -26 -26 -26 -27 -27 -27 -29 -29 -29 -29 -29 -29 -30 -30 -29 -29 -29 -29 -28 -28 -28 -28 -27 -27 -26 -25 -25 -24 -24 -23 -23 -23 -23 -23 -22 -22 -21 -21 -20
-26 -26 -26 -26 -26 -26 -26 -27 -27 -28 -28 -29 -29 -29 -29 -29 -29 -29 -29 -29 -29 -29 -29 -28 -28 -28 -27 -27 -27 -26 -25 -25 -24 -23 -23 -23 -23 -23 -23 -22 -22 -21 -21 -21
-27 -26 -26 -26 -26 -26 -26 -27 -27 -28 -28 -29 -29 -29 -30 -30 -30 -30 -29 -29 -29 -29 -29 -28 -28 -28 -27 -27 -27 -26 -25 -26 -25 -23 -22 -23 -22 -22 -22 -22 -22 -22 -21 -21
-27 -27 -26 -26 -27 -26 -27 -27 -27 -27 -28 -29 -29 -29 -29 -30 -30 -29 -29 -29 -29 -29 -29 -29 -28 -27 -27 -27 -26 -25 -26 -25 -24 -24 -23 -22 -22 -22 -22 -23 -22 -22 -22 -22
-27 -27 -27 -27 -27 -27 -27 -27 -27 -27 -28 -28 -28 -29 -30 -30 -30 -30 -29 -29 -29 -29 -29 -28 -28 -27 -27 -27 -26 -26 -25 -25 -24 -25 -24 -23 -23 -23 -23 -23 -23 -22 -22 -22
-28 -27 -27 -27 -27 -27 -27 -27 -27 -27 -28 -28 -29 -30 -30 -31 -31 -30 -29 -29 -29 -29 -29 -28 -28 -28 -27 -27 -26 -26 -25 -25 -25 -24 -24 -24 -24 -24 -23 -23 -23 -22 -22 -22
-28 -27 -28 -27 -27 -27 -27 -27 -27 -28 -28 -29 -29 -30 -30 -30 -31 -30 -29 -29 -28 -28 -28 -29 -28 -28 -27 -27 -26 -26 -26 -25 -25 -24 -24 -24 -24 -23 -23 -23 -23 -22 -22 -22
-29 -29 -28 -27 -27 -27 -27 -28 -28 -28 -29 -30 -30 -31 -30 -30 -30 -30 -29 -29 -29 -28 -28 -28 -28 -28 -27 -27 -27 -26 -26 -25 -25 -24 -24 -23 -23 -23 -23 -23 -23 -23 -23 -23
-29 -28 -28 -28 -28 -28 -28 -28 -29 -30 -30 -30 -30 -31 -30 -30 -30 -29 -29 -29 -28 -28 -28 -28 -28 -27 -27 -27 -27 -26 -26 -25 -25 -25 -24 -24 -24 -23 -23 -23 -22 -23 -23 -23
-29 -29 -29 -28 -28 -28 -28 -29 -29 -30 -30 -29 -30 -31 -30 -30 -30 -29 -29 -28 -28 -28 -28 -28 -28 -27 -27 -26 -26 -26 -26 -25 -25 -24 -24 -24 -24 -24 -23 -23 -22 -23 -23 -23
-30 -29 -29 -28 -28 -28 -28 -29 -29 -29 -29 -29 -30 -30 -30 -29 -29 -29 -29 -29 -28 -28 -27 -27 -27 -27 -27 -26 -26 -26 -26 -25 -25 -25 -24 -24 -24 -23 -24 -23 -23 -23 -24 -23
-29 -29 -29 -29 -29 -29 -29 -29 -29 -28 -28 -29 -29 -29 -29 -29 -29 -29 -29 -29 -28 -28 -27 -27 -27 -26 -26 -26 -26 -26 -25 -25 -25 -24 -24 -24 -24 -24 -24 -23 -23 -23 -23 -23
-29 -29 -29 -29 -29 -29 -29 -29 -28 -28 -29 -29 -29 -28 -28 -28 -28 -28 -28 -28 -28 -27 -27 -26 -26 -26 -26 -26 -25 -25 -25 -25 -24 -24 -24 -24 -24 -23 -23 -23 -23 -23 -23 -23
-29 -29 -29 -29 -29 -29 -29 -28 -28 -28 -29 -29 -28 -28 -28 -28 -28 -28 -28 -27 -27 -27 -27 -27 -27 -27 -26 -26 -25 -25 -25 -25 -24 -24 -24 -24 -24 -24 -23 -23 -23 -23 -23 -23
-29 -29 -29 -29 -29 -29 -28 -28 -28 -28 -28 -28 -28 -28 -28 -28 -27 -27 -27 -27 -27 -27 -27 -27 -26 -27 -26 -26 -26 -25 -25 -25 -24 -24 -24 -24 -24 -24 -24 -24 -23 -23 -23 -23
-29 -29 -29 -28 -28 -29 -29 -29 -28 -28 -28 -28 -28 -28 -28 -27 -27 -27 -27 -27 -27 -27 -27 -27 -27 -26 -27 -26 -26 -26 -25 -25 -25 -25 -25 -24 -24 -24 -24 -24 -24 -24 -24 -24
-29 -29 -29 -29 -29 -29 -29 -28 -28 -28 -27 -27 -28 -28 -27 -27 -27 -27 -27 -27 -27 -27 -27 -27 -26 -26 -26 -26 -26 -26 -26 -25 -25 -25 -25 -25 -25 -25 -25 -25 -25 -25 -24 -24
-29 -29 -29 -29 -29 -29 -29 -29 -28 -28 -28 -28 -28 -28 -28 -27 -27 -27 -27 -27 -27 -27 -27 -27 -27 -26 -26 -26 -26 -26 -26 -26 -26 -26 -26 -26 -26 -26 -25 -25 -25 -24 -24 -24

GFSNW_500_temp_114.txt.gz
Temp
-20 -20 -20 -21 -22 -23 -23 -23 -22 -22 -22 -22 -22 -22 -22 -23 -23 -23 -24 -25 -26 -27 -27 -27 -28 -27 -27 -27 -25 -24 -24 -24 -23 -23 -22 -23 -23 -22 -23 -23 -21 -21 -20 -20
-21 -21 -21 -22 -22 -22 -23 -23 -22 -23 -23 -23 -23 -23 -23 -23 -24 -24 -25 -26 -26 -27 -27 -28 -27 -27 -27 -26 -25 -25 -24 -24 -23 -23 -23 -23 -22 -23 -23 -23 -22 -21 -21 -20
-22 -22 -22 -22 -22 -23 -24 -23 -23 -23 -23 -23 -23 -23 -23 -24 -24 -25 -25 -26 -27 -27 -28 -28 -27 -27 -26 -26 -25 -25 -25 -24 -24 -23 -22 -23 -22 -22 -21 -23 -23 -21 -21 -21
-23 -23 -23 -23 -23 -23 -24 -24 -23 -23 -23 -23 -23 -24 -24 -24 -25 -25 -26 -27 -27 -27 -27 -28 -28 -27 -27 -27 -26 -25 -25 -24 -24 -23 -22 -22 -23 -22 -22 -22 -22 -23 -21 -21
-23 -23 -23 -23 -23 -24 -24 -24 -24 -24 -24 -24 -24 -24 -24 -25 -25 -26 -27 -27 -27 -28 -27 -28 -28 -27 -27 -27 -27 -26 -26 -24 -24 -24 -22 -22 -22 -22 -23 -22 -22 -21 -21 -20
-24 -23 -24 -24 -24 -24 -24 -25 -25 -24 -24 -24 -24 -24 -24 -25 -26 -26 -27 -27 -27 -28 -28 -28 -28 -28 -27 -26 -26 -26 -25 -25 -25 -24 -23 -22 -23 -22 -22 -22 -22 -21 -21 -21
-24 -24 -24 -24 -24 -25 -25 -25 -25 -25 -24 -25 -25 -25 -25 -25 -26 -27 -27 -27 -27 -28 -29 -29 -28 -28 -27 -26 -26 -25 -25 -24 -25 -24 -23 -23 -23 -22 -22 -22 -21 -21 -21 -21
-26 -25 -26 -26 -26 -26 -25 -25 -25 -25 -25 -25 -25 -25 -25 -26 -26 -27 -28 -28 -28 -28 -29 -29 -28 -28 -27 -27 -26 -25 -25 -24 -24 -24 -24 -23 -23 -22 -22 -22 -21 -21 -20 -21
-27 -26 -26 -26 -26 -26 -26 -25 -25 -25 -25 -26 -26 -26 -26 -26 -27 -28 -28 -28 -28 -28 -29 -29 -28 -27 -28 -27 -26 -26 -25 -24 -24 -24 -24 -23 -23 -22 -22 -21 -22 -20 -20 -21
-26 -26 -26 -26 -26 -26 -26 -26 -25 -25 -25 -26 -26 -26 -26 -27 -27 -28 -28 -29 -29 -29 -29 -29 -28 -28 -28 -27 -27 -26 -25 -25 -24 -24 -23 -23 -23 -22 -22 -22 -21 -21 -20 -20
-27 -27 -27 -27 -26 -26 -26 -26 -26 -26 -26 -26 -26 -26 -26 -27 -28 -28 -29 -29 -29 -29 -29 -29 -29 -28 -28 -28 -27 -27 -26 -26 -25 -24 -23 -23 -23 -23 -22 -22 -21 -21 -21 -21
-28 -28 -27 -27 -27 -26 -26 -26 -26 -26 -26 -26 -26 -26 -26 -28 -28 -28 -29 -29 -30 -30 -29 -29 -29 -28 -28 -28 -27 -27 -27 -26 -25 -25 -23 -23 -23 -23 -23 -22 -21 -21 -21 -21
-28 -28 -28 -28 -27 -27 -26 -26 -26 -26 -26 -27 -26 -26 -27 -28 -28 -28 -29 -29 -29 -30 -29 -29 -29 -28 -28 -28 -28 -27 -27 -26 -26 -25 -24 -23 -22 -22 -23 -22 -22 -21 -22 -21
-28 -28 -28 -28 -28 -27 -27 -27 -26 -27 -27 -27 -26 -27 -27 -28 -28 -29 -29 -29 -30 -30 -30 -29 -29 -28 -28 -27 -27 -26 -26 -26 -25 -25 -24 -23 -23 -22 -22 -22 -23 -22 -22 -21
-29 -28 -28 -28 -28 -28 -27 -27 -27 -27 -27 -27 -27 -27 -28 -28 -29 -29 -29 -29 -29 -29 -29 -29 -29 -28 -28 -28 -27 -26 -26 -26 -25 -25 -25 -25 -25 -23 -22 -22 -22 -22 -22 -21
-30 -30 -29 -29 -28 -28 -28 -28 -28 -27 -27 -27 -27 -28 -28 -29 -30 -30 -30 -30 -29 -29 -29 -29 -29 -28 -28 -28 -27 -27 -26 -26 -26 -26 -25 -25 -25 -24 -24 -23 -23 -22 -22 -22
-31 -31 -30 -29 -29 -28 -28 -28 -28 -27 -27 -27 -28 -28 -29 -30 -30 -30 -30 -30 -29 -29 -29 -29 -29 -28 -28 -28 -27 -27 -26 -26 -26 -26 -25 -25 -25 -25 -24 -24 -23 -23 -22 -22
-32 -31 -30 -30 -30 -29 -29 -28 -28 -28 -28 -28 -28 -29 -29 -30 -30 -30 -30 -30 -29 -29 -28 -29 -29 -28 -28 -28 -28 -27 -27 -26 -26 -26 -25 -25 -25 -25 -24 -24 -23 -23 -23 -23
-32 -31 -30 -30 -30 -30 -29 -28 -28 -27 -27 -28 -28 -29 -30 -30 -30 -30 -30 -30 -29 -29 -29 -28 -28 -28 -28 -28 -27 -27 -27 -26 -26 -25 -25 -25 -25 -24 -24 -24 -24 -23 -23 -23
-31 -30 -30 -30 -30 -29 -28 -28 -28 -28 -28 -29 -29 -30 -30 -30 -30 -30 -29 -29 -29 -29 -29 -28 -28 -28 -27 -28 -27 -27 -26 -26 -26 -25 -25 -25 -25 -25 -24 -24 -24 -23 -23 -23
-31 -30 -30 -30 -29 -29 -29 -28 -28 -28 -29 -30 -30 -30 -30 -29 -30 -29 -29 -29 -29 -29 -29 -28 -28 -28 -28 -28 -27 -27 -27 -26 -26 -26 -25 -25 -25 -24 -24 -24 -24 -23 -23 -23
-31 -31 -30 -30 -29 -29 -29 -28 -28 -29 -30 -30 -29 -29 -29 -29 -29 -29 -29 -29 -29 -29 -29 -28 -28 -28 -28 -27 -27 -27 -26 -26 -25 -25 -25 -25 -25 -25 -25 -25 -24 -24 -24 -24
-31 -31 -30 -30 -29 -29 -28 -28 -28 -29 -30 -30 -29 -29 -29 -29 -29 -29 -28 -28 -28 -28 -28 -27 -27 -27 -27 -27 -26 -26 -26 -26 -25 -25 -25 -25 -25 -24 -24 -24 -24 -24 -24 -23
-31 -31 -30 -30 -29 -29 -29 -29 -29 -29 -30 -30 -29 -29 -29 -29 -28 -28 -28 -28 -28 -28 -28 -28 -27 -27 -27 -27 -27 -27 -27 -26 -26 -25 -25 -25 -25 -25 -25 -25 -24 -24 -24 -24
-31 -31 -30 -29 -29 -29 -29 -29 -29 -30 -30 -30 -29 -29 -28 -28 -28 -28 -28 -28 -28 -28 -28 -27 -27 -27 -27 -27 -27 -27 -27 -27 -27 -26 -26 -26 -26 -26 -25 -25 -25 -25 -25 -25
-30 -30 -30 -29 -29 -30 -30 -30 -30 -30 -30 -29 -29 -29 -29 -28 -28 -28 -28 -28 -28 -28 -27 -27 -27 -27 -27 -27 -27 -27 -27 -27 -27 -27 -26 -26 -26 -26 -26 -26 -26 -26 -25 -25
-29 -30 -30 -30 -30 -30 -30 -29 -29 -29 -29 -29 -29 -29 -29 -29 -28 -28 -28 -28 -28 -28 -27 -27 -27 -27 -27 -27 -27 -27 -27 -27 -27 -27 -26 -26 -26 -26 -26 -26 -26 -26 -26 -26

GFSNW_500_temp_117.txt.gz
Temp
-18 -18 -19 -19 -19 -20 -20 -20 -20 -21 -21 -21 -22 -22 -22 -22 -22 -22 -22 -22 -22 -23 -23 -23 -25 -27 -27 -26 -25 -25 -25 -23 -23 -22 -22 -23 -23 -23 -23 -22 -22 -21 -21 -19
-19 -19 -20 -20 -21 -21 -20 -21 -21 -21 -22 -22 -22 -22 -22 -22 -22 -22 -22 -23 -23 -23 -24 -24 -26 -27 -27 -26 -26 -25 -25 -24 -23 -22 -22 -22 -23 -23 -23 -22 -22 -21 -21 -20
-20 -20 -21 -21 -21 -21 -22 -21 -21 -22 -22 -23 -23 -23 -23 -22 -22 -23 -23 -23 -23 -24 -25 -26 -27 -26 -27 -26 -25 -26 -25 -25 -23 -22 -23 -22 -22 -22 -22 -22 -21 -21 -21 -20
-21 -21 -22 -22 -22 -22 -22 -22 -22 -23 -23 -23 -23 -23 -23 -23 -23 -23 -23 -24 -24 -24 -25 -27 -27 -27 -27 -26 -25 -25 -25 -24 -24 -23 -22 -23 -21 -21 -22 -22 -21 -21 -21 -20
-22 -22 -22 -23 -23 -24 -23 -23 -23 -23 -23 -24 -23 -23 -23 -23 -23 -23 -24 -23 -24 -25 -26 -26 -27 -27 -28 -27 -26 -26 -26 -25 -24 -23 -23 -22 -22 -22 -22 -21 -21 -21 -21 -20
-23 -23 -23 -23 -24 -24 -24 -23 -23 -23 -24 -24 -23 -23 -24 -24 -24 -24 -24 -24 -25 -26 -26 -27 -27 -27 -27 -26 -26 -26 -25 -25 -25 -24 -23 -22 -22 -22 -22 -21 -21 -22 -21 -21
-24 -24 -24 -24 -24 -24 -24 -24 -24 -24 -24 -24 -24 -24 -24 -24 -24 -24 -25 -24 -25 -27 -27 -27 -27 -27 -27 -26 -26 -25 -25 -25 -25 -23 -23 -22 -22 -22 -22 -22 -22 -21 -22 -21
-25 -25 -25 -25 -25 -25 -25 -25 -25 -24 -25 -25 -24 -24 -24 -24 -24 -25 -25 -25 -26 -27 -27 -27 -27 -27 -28 -27 -26 -25 -25 -24 -24 -24 -23 -23 -23 -22 -22 -22 -21 -21 -20 -20
-25 -25 -25 -25 -25 -25 -25 -25 -26 -25 -25 -25 -25 -25 -24 -25 -25 -25 -25 -26 -27 -27 -28 -28 -28 -27 -27 -27 -26 -25 -25 -24 -24 -24 -24 -23 -23 -22 -22 -21 -21 -20 -21 -21
-26 -26 -26 -26 -26 -26 -26 -26 -26 -25 -25 -25 -25 -25 -25 -25 -26 -26 -26 -26 -27 -28 -28 -28 -28 -28 -27 -27 -27 -26 -25 -25 -24 -24 -24 -23 -23 -22 -22 -22 -21 -20 -20 -20
-27 -27 -27 -27 -26 -26 -26 -26 -26 -26 -25 -25 -25 -25 -25 -26 -26 -26 -26 -27 -28 -28 -29 -28 -28 -28 -28 -27 -27 -27 -26 -25 -25 -24 -24 -24 -23 -23 -22 -21 -21 -21 -21 -20
-27 -27 -27 -27 -27 -27 -26 -26 -26 -26 -26 -25 -25 -25 -26 -26 -26 -26 -27 -27 -28 -29 -29 -29 -28 -28 -28 -28 -27 -27 -27 -26 -25 -25 -24 -23 -23 -23 -22 -22 -22 -21 -21 -21
-28 -28 -28 -27 -27 -27 -27 -27 -26 -26 -26 -26 -25 -26 -26 -26 -26 -27 -27 -28 -28 -29 -29 -29 -29 -29 -28 -28 -27 -27 -27 -26 -26 -25 -24 -23 -23 -22 -22 -22 -21 -22 -21 -21
-28 -28 -28 -28 -28 -28 -27 -27 -27 -26 -26 -26 -26 -26 -26 -26 -26 -27 -27 -28 -28 -29 -29 -29 -29 -29 -28 -28 -27 -27 -27 -27 -26 -25 -24 -24 -23 -23 -22 -23 -22 -22 -22 -22
-30 -29 -29 -28 -28 -28 -28 -27 -27 -27 -27 -27 -27 -27 -26 -27 -27 -27 -28 -28 -29 -28 -29 -29 -29 -28 -28 -28 -27 -27 -27 -26 -26 -26 -25 -25 -23 -22 -22 -23 -22 -22 -22 -23
-31 -30 -29 -29 -28 -28 -28 -28 -27 -27 -27 -27 -27 -27 -27 -27 -27 -28 -28 -29 -29 -29 -29 -29 -29 -29 -28 -28 -28 -27 -27 -26 -26 -26 -26 -25 -25 -24 -23 -23 -23 -23 -23 -22
-31 -30 -30 -30 -29 -29 -29 -28 -28 -28 -28 -28 -27 -27 -27 -27 -28 -28 -29 -30 -29 -29 -29 -29 -29 -28 -28 -28 -28 -27 -26 -26 -26 -26 -25 -25 -25 -24 -23 -23 -23 -23 -23 -23
-32 -32 -31 -30 -30 -30 -30 -29 -29 -29 -28 -28 -27 -28 -28 -28 -29 -29 -29 -30 -29 -29 -28 -28 -28 -28 -28 -28 -27 -27 -27 -26 -26 -26 -26 -25 -25 -25 -24 -24 -23 -23 -23 -23
-33 -32 -32 -31 -30 -30 -30 -29 -29 -28 -28 -28 -28 -28 -29 -29 -29 -29 -29 -30 -29 -29 -29 -28 -28 -28 -28 -27 -27 -27 -27 -27 -26 -26 -25 -26 -25 -24 -24 -24 -24 -23 -23 -23
-33 -32 -32 -31 -31 -30 -30 -29 -29 -28 -28 -28 -29 -29 -29 -30 -30 -30 -29 -29 -29 -29 -29 -28 -28 -28 -27 -27 -27 -27 -27 -26 -26 -25 -25 -25 -25 -25 -25 -24 -24 -24 -24 -24
-33 -32 -32 -31 -31 -30 -30 -29 -29 -29 -29 -29 -29 -29 -30 -30 -30 -29 -29 -29 -29 -29 -29 -29 -28 -28 -28 -28 -27 -27 -27 -26 -26 -26 -26 -25 -25 -25 -25 -24 -24 -24 -23 -23
-32 -32 -31 -31 -31 -30 -29 -29 -29 -29 -29 -29 -29 -30 -29 -29 -29 -29 -29 -29 -29 -29 -29 -28 -28 -28 -28 -28 -27 -27 -27 -26 -26 -26 -25 -26 -25 -25 -25 -25 -24 -24 -24 -23
-32 -31 -31 -31 -30 -30 -29 -28 -28 -29 -29 -30 -29 -29 -29 -29 -29 -29 -29 -28 -28 -28 -28 -28 -28 -28 -28 -27 -27 -27 -27 -26 -26 -25 -25 -25 -25 -25 -25 -25 -25 -24 -24 -24
-31 -31 -31 -31 -30 -30 -29 -29 -29 -29 -30 -30 -29 -29 -29 -29 -29 -29 -28 -28 -28 -28 -28 -28 -28 -27 -28 -27 -27 -27 -26 -26 -26 -25 -25 -25 -25 -24 -24 -24 -24 -24 -24 -24
-31 -31 -31 -30 -30 -30 -29 -29 -29 -29 -30 -30 -29 -29 -29 -29 -28 -28 -28 -28 -28 -28 -28 -27 -27 -27 -27 -27 -27 -27 -27 -27 -27 -26 -26 -26 -25 -25 -25 -25 -25 -24 -24 -24
-31 -31 -30 -30 -30 -29 -30 -29 -29 -30 -29 -29 -29 -29 -28 -28 -29 -28 -28 -28 -28 -28 -28 -28 -27 -27 -27 -27 -27 -27 -27 -27 -27 -27 -27 -27 -26 -26 -26 -26 -25 -25 -25 -25
-30 -30 -30 -30 -30 -30 -30 -29 -29 -29 -29 -29 -29 -29 -29 -28 -28 -28 -28 -28 -28 -28 -28 -28 -27 -27 -27 -27 -27 -27 -27 -27 -27 -27 -27 -27 -27 -27 -26 -26 -26 -26 -26 -26